THOR ABLESTAR DEB, 128

Orbit data source: Space-Track

THOR ABLESTAR DEB, 128 is space debris in LEO originally from a launch on Thu, 29 Jun 1961 UTC launched from the Air Force Eastern Test Range (AFETR). Debris objects in space refer to the collection of defunct objects orbiting the Earth. Examples of debris include non-operational satellites, rocket bodies, and fragments generated from explosions, collisions, or faulty payload assembly.

Loading next visibility...
Identifier
128, 1961-015N
Orbit
LEO
Country
Flag of USUS
Related business
Manufacturer
Unknown
Mission
Spacecraft
Bus & Motor
Unknown
Mass
Unknown
Launch date (UTC)
1961-06-29 (65 years ago)
Launch vehicle
Unknown
Launch site
Air Force Eastern Test Range (AFETR)
Object type
Payload
Rocket body
Debris
Shape & HBR
Unknown shape, 0.3 m
Radar Cross Section
Medium (>0.1 m² and <1 m²)

Expand to show TLE details & history
Last TLE update: 22 hours ago

TLE from 22 hours ago
0 THOR ABLESTAR DEB
1 00128U 61015N   26126.80311448  .00000025  00000-0  66345-4 0  9995
2 00128  66.6748 283.4585 0095645 342.7847  16.9998 14.02025227309277
Epoch: 2026-05-06T19:16Z
TLE epoch observation values (Epoch: 2026-05-06T19:16:29.091Z)
Latitude
-0.00007°
Longitude
129.67889°
Altitude
822.469 km
Speed
7.476 km/s
True Right ascension
18h 53m 50s
True Declination
0° 00' 00"
Sunlit
Object was in full shadow at epoch
Visualization orbit readout
Latitude
Unknown
Longitude
Unknown
Altitude
Unknown
Speed
Unknown
Apparent Right ascension
Unknown
Apparent Declination
Unknown
Sunlit
N/A
Visualization observer readout
Local Sidereal Time
01:10:26
Azimuth
Unknown
Elevation
Unknown
Doppler factor
Unknown
Orbital elements
Apogee altitude
954.66 km
Perigee altitude
815.719 km
Semi-major axis
7,263.327 km
Eccentricity
0.00956
Inclination
66.6748°
RAAN
283.4585°
Arg. of periapsis
342.7847°
True anomaly
17.32394°
Mean anomaly
16.9998°
Eccentric anomaly
17.1615°
Mean motion
3.50623 °/min
Orbital period
102.67 mins
BSTAR
0.000066345
Loading maneuver chart data...
Computing Atmospheric mass density...

Documentation

Showing up to 5 results
|